STARLINK-32577, 62044

Orbit data source: Space-Track

STARLINK-32577, 62044 is a payload satellite owned by SpaceX/Seattle (US) in LEO that was launched on Thu, 21 Nov 2024 UTC via an FALCON 9 launch vehicle from the Air Force Eastern Test Range (AFETR). Payloads include a variety of satellites, spacecraft, and rockets equipped with specific instruments for various scientific and technological missions. These include communications satellites like Starlink; space stations such as the ISS; scientific satellites like the Hubble; Earth observation satellites from companies like Planet Labs, Umbra, and HawkEye 360; GPS; miniature CubeSats for education and research; and military/defense satellites.

Loading next visibility...
STARLINK-32577 details
Identifier
62044, 2024-216N
Orbit
LEO
Last TLE update10 hours ago
Origin
Flag of USSpaceX/Seattle (US)
ManufacturerSpaceX/Seattle
MissionOperational spacecraft
Bus & MotorSTARLINK V2M, Unknown motor
Mass730 kg wet, ~700 kg dry
Launch date (UTC)
2024-11-21 (1 month ago)
Launch vehicle
FALCON 9
Launch site
Air Force Eastern Test Range (AFETR)
Object type
Payload
Rocket body
Debris
Shape & HBRUnknown
Radar Cross SectionLarge (>1 m²)

Expand to show TLE details & history

TLE from 10 hours ago
0 STARLINK-32577
1 62044U 24216N   24361.00513995 -.00000921  00000-0 -14774-4 0  9990
2 62044  43.0009 234.6269 0001927 269.2866  90.7769 15.40696167  6564
Epoch: 2024-12-26T00:07Z
Definitive object data (Epoch: 2024-12-26T00:07:24.091Z)
Latitude-0.00008°
Longitude137.78569°
Altitude443.846 km
Speed7.648 km/s
True Right ascension15h 38m 30s
True Declination0° 00' 00"
Sunlit
Object was in daylight at TLE epoch
Visualization TLE readout
Latitude-1.80245°
Longitude-42.72254°
Altitude444.07 km
Speed7.647 km/s
Apparent Right ascension01h 13m 32s
Apparent Declination-27° 03' 20"
Sunlit
Object is in full shadow
Visualization observer readout
Local Sidereal Time09:36:00
Azimuth268.727° W
Elevation-43.601°
Doppler factor1
Orbital elements
Apogee altitude447.325 km
Perigee altitude444.695 km
Semi-major axis6,824.147 km
Eccentricity0.0001927
Inclination43.0009°
RAAN234.6269°
Arg. of periapsis269.2866°
True anomaly90.79898°
Mean anomaly90.7769°
Eccentric anomaly90.78794°
Mean motion3.85009 °/min
BSTAR-0.000014774
Orbital period93.5 mins
Loading maneuver chart data...
Loading historical data...
Loading historical data...
Loading historical data...
Loading historical data...
Loading historical data...
Loading historical data...
Loading historical data...

STARLINK-32577 Visibility forecast

Observer location: undefined°, undefined

Span
Click to sort rows by Start time (UTC) header in descending order
Start Az.
Max El. time (UTC)
Max El. Az.
Max El.
End time (UTC)
End Az.
5 mins2024-12-26 18:59:50.795Z213.452° SW2024-12-26 19:02:50.795Z142.148° SSE28.973°2024-12-26 19:04:50.795Z93.013° ESE
5 mins2024-12-26 20:38:50.795Z269.834° W2024-12-26 20:40:50.795Z17.669° NNE41.947°2024-12-26 20:43:50.795Z69.9° E
5 mins2024-12-26 22:16:50.795Z295.469° NW2024-12-26 22:18:50.795Z0.006° NNE37.746°2024-12-26 22:21:50.795Z79.696° E
5 mins2024-12-26 23:54:50.795Z283.254° WNW2024-12-26 23:56:50.795Z239.246° WSW42.819°2024-12-26 23:59:50.795Z118.863° SE
|